Location: Newark
(48.2308°N, 120.8549°W)
Time: 05:19:36
(UTC+00:00)

FENGYUN 1C DEB - Pass Details

Date: 06 February 2022
Orbit: 822 x 948 km, 99.2° (Epoch: 25 May)

Event Time Altitude Azimuth Distance (km) Brightness Sun altitude
Rises 03:07:18 0° 159° (SSE) 3,610 ? -19.8°
Reaches altitude 10° 03:09:45 10° 159° (SSE) 2,664 ? -20.3°
Maximum altitude 03:15:44 83° 72° (ENE) 950 ? -21.3°
Drops below altitude 10° 03:21:38 10° 346° (NNW) 2,624 ? -22.2°
Sets 03:24:02 0° 346° (NNW) 3,553 ? -22.6°
